Weather History for Racine, WI

Change the Weather History Date:

Wednesday, September 11, 2013

  Actual Average Record
Temperature  
Mean Temperature 76 °F -  
Max Temperature 82 °F 74 °F 93 °F (1978)
Min Temperature 70 °F 56 °F 42 °F (1955)
Cooling Degree Days 11    
Growing Degree Days 26 (Base 50)    
Moisture  
Dew Point 66 °F    
Average Humidity 72    
Maximum Humidity 90    
Minimum Humidity 54    
Precipitation  
Precipitation 0.00 in - - ()
Sea Level Pressure  
Sea Level Pressure 30.01 in    
Wind  
Wind Speed 7 mph (WSW)    
Max Wind Speed 12 mph    
Max Gust Speed -    
Visibility 10 miles    
Events Rain    
Averages and records for this station are not official NWS values.
T = Trace of Precipitation, MM = Missing Value Source: NWS Daily Summary

Daily Weather History Graph

Daily Weather History Graph

Search for Another Location

Airport:

Trip Planner

Search our weather history database for the weather conditions in past years. The results will help you decide how hot, cold, wet, or windy it might be!

Date:

Astronomy

Sep. 11, 2013 Rise Set
Actual Time 6:26 AM CDT 7:07 PM CDT
Civil Twilight 5:58 AM CDT 7:36 PM CDT
Nautical Twilight 5:24 AM CDT 8:09 PM CDT
Astronomical Twilight 4:49 AM CDT 8:44 PM CDT
Moon 1:03 PM CDT (9/11) 10:54 PM CDT (9/11)
Length of Visible Light 13h 37m
Length of Day
12h 40m
Waxing Crescent, 39% of the Moon is Illuminated
Sep 11
Waxing Crescent
Sep 12
First Quarter
Sep 19
Full
Sep 26
Last Quarter
Oct 4
New

Hourly Weather History & Observations

Time (CDT) Temp. Heat Index Dew Point Humidity Pressure Visibility Wind Dir Wind Speed Gust Speed Precip Events Conditions
12:53 AM 82.0 °F 83.4 °F 64.0 °F 54% 29.94 in 10.0 mi SW 11.5 mph - N/A   Clear
1:53 AM 81.0 °F 82.5 °F 64.0 °F 56% 29.96 in 10.0 mi WSW 10.4 mph - N/A   Clear
2:53 AM 78.1 °F - 64.9 °F 64% 29.97 in 10.0 mi WSW 8.1 mph - N/A   Clear
3:53 AM 75.9 °F - 64.9 °F 69% 29.98 in 10.0 mi NW 3.5 mph - N/A   Clear
4:53 AM 71.1 °F - 66.9 °F 87% 30.00 in 10.0 mi North 6.9 mph - N/A   Clear
5:53 AM 71.1 °F - 66.9 °F 87% 30.01 in 10.0 mi NE 5.8 mph - N/A   Clear
6:53 AM 70.0 °F - 66.9 °F 90% 30.04 in 10.0 mi Calm Calm - N/A   Clear
7:53 AM 72.0 °F - 68.0 °F 87% 30.08 in 10.0 mi NNW 4.6 mph - N/A   Mostly Cloudy
8:53 AM 75.9 °F - 66.9 °F 74% 30.05 in 10.0 mi East 3.5 mph - N/A   Partly Cloudy
9:53 AM 75.9 °F - 66.9 °F 74% 30.03 in 10.0 mi SE 6.9 mph - N/A   Scattered Clouds
10:53 AM 78.1 °F - 64.9 °F 64% 30.03 in 10.0 mi South 5.8 mph - N/A   Clear
11:53 AM 77.0 °F - 64.9 °F 66% 30.04 in 10.0 mi South 6.9 mph - N/A   Mostly Cloudy
12:53 PM 79.0 °F - 64.9 °F 62% 30.04 in 10.0 mi South 5.8 mph - N/A   Clear
1:53 PM 77.0 °F - 66.0 °F 69% 30.04 in 8.0 mi West 6.9 mph - 0.00 in Rain Light Rain
2:53 PM 75.9 °F - 66.9 °F 74% 30.03 in 10.0 mi WSW 4.6 mph - 0.00 in Rain Light Rain
3:53 PM 77.0 °F - 66.9 °F 71% 30.00 in 10.0 mi West 6.9 mph - 0.00 in   Partly Cloudy
4:53 PM 81.0 °F 82.7 °F 64.9 °F 58% 30.00 in 10.0 mi West 11.5 mph - N/A   Clear
5:53 PM 80.1 °F 82.1 °F 66.0 °F 62% 29.99 in 10.0 mi West 3.5 mph - N/A   Scattered Clouds
6:53 PM 78.1 °F - 66.9 °F 68% 29.99 in 10.0 mi West 3.5 mph - N/A   Scattered Clouds
7:53 PM 75.9 °F - 66.9 °F 74% 29.99 in 10.0 mi WSW 3.5 mph - N/A   Partly Cloudy
8:53 PM 73.9 °F - 66.9 °F 79% 29.99 in 10.0 mi WSW 3.5 mph - N/A   Clear
9:53 PM 73.0 °F - 66.0 °F 79% 29.99 in 10.0 mi Calm Calm - N/A   Clear
10:53 PM 71.1 °F - 64.9 °F 81% 29.98 in 10.0 mi West 4.6 mph - N/A   Clear
11:53 PM 71.1 °F - 64.0 °F 78% 29.97 in 10.0 mi West 5.8 mph - N/A   Clear